CW0570 Weather Reports


Display with metric or nautical units.
time (UTC)temp
F
wind
direction
speed
MPH
gust
MPH
rain 1hr
in
rain 24hr
in
rain mn
in
humidity
%
barometer
mb
20260906113013 49 23 0.0 0.0 0.00 0.00 0.00 97 1018.3
20260906111509 49 23 0.0 0.0 0.00 0.00 0.00 97 1018.3
20260906110007 48 23 0.0 0.0 0.00 0.00 0.00 97 1018.1
20260906104505 48 23 0.0 0.0 0.00 0.00 0.00 97 1018.2
20260906103005 48 23 0.0 0.0 0.00 0.00 0.00 97 1017.9
20260906101504 48 23 0.0 0.0 0.00 0.00 0.00 97 1017.9
20260906100003 48 23 0.0 0.0 0.00 0.00 0.00 97 1017.8
20260906094502 48 23 0.0 0.0 0.00 0.00 0.00 96 1017.9
20260906093106 48 23 0.0 0.0 0.00 0.00 0.00 96 1018.0
20260906091604 48 23 0.0 0.0 0.00 0.00 0.00 96 1018.1
20260906090113 48 23 0.0 0.0 0.00 0.00 0.00 96 1018.1
20260906084609 48 23 0.0 0.0 0.00 0.00 0.00 96 1018.0
20260906083056 48 23 0.0 0.0 0.00 0.00 0.00 96 1018.0
20260906081557 49 23 0.0 0.0 0.00 0.00 0.00 96 1018.1
20260906080056 49 23 0.0 0.0 0.00 0.00 0.00 96 1018.1
20260906074601 49 23 0.0 0.0 0.00 0.00 0.00 96 1018.1
20260906073058 49 23 0.0 0.0 0.00 0.00 0.00 95 1018.1
20260906071550 49 23 0.0 0.0 0.00 0.00 0.00 95 1018.1
20260906070056 50 23 0.0 0.0 0.00 0.00 0.00 95 1018.0
20260906064546 50 23 0.0 0.0 0.00 0.00 0.00 94 1017.9
20260906063045 50 23 0.0 0.0 0.00 0.00 0.00 94 1017.8
20260906061558 51 23 0.0 0.0 0.00 0.00 0.00 94 1017.8
20260906060041 51 23 0.0 0.0 0.00 0.00 0.00 93 1017.8
20260906054539 52 23 0.0 0.0 0.00 0.00 0.00 93 1017.8
20260906053044 52 23 0.0 0.0 0.00 0.00 0.00 92 1017.8
20260906051538 53 23 0.0 0.0 0.00 0.00 0.00 92 1018.0
20260906050048 54 23 0.0 0.0 0.00 0.00 0.00 91 1017.9
20260906044537 55 23 0.0 0.0 0.00 0.00 0.00 89 1017.9
20260906043045 56 23 0.0 0.0 0.00 0.00 0.00 89 1017.8
20260906041537 56 23 0.0 0.0 0.00 0.00 0.00 87 1017.7
20260906040043 57 23 0.0 0.0 0.00 0.00 0.00 87 1017.3
20260906034536 58 23 0.0 2.0 0.00 0.00 0.00 85 1017.1
20260906033037 58 321 0.0 2.0 0.00 0.00 0.00 84 1017.0
20260906031535 59 321 0.0 2.0 0.00 0.00 0.00 82 1016.9
20260906030036 59 349 0.0 5.0 0.00 0.00 0.00 80 1016.8
20260906024536 60 355 0.0 2.0 0.00 0.00 0.00 81 1016.7
20260906023034 61 345 0.0 2.0 0.00 0.00 0.00 77 1016.7
20260906021532 61 345 0.0 2.0 0.00 0.00 0.00 78 1016.7
20260906020032 63 355 0.0 3.0 0.00 0.00 0.00 73 1016.7
20260906014542 65 84 0.0 2.0 0.00 0.00 0.00 72 1016.5
20260906013033 67 32 1.0 5.0 0.00 0.00 0.00 60 1016.4
20260906011535 68 360 2.0 5.0 0.00 0.00 0.00 58 1016.3
20260906010030 70 360 1.0 3.0 0.00 0.00 0.00 60 1016.3
20260906004530 69 27 0.0 4.0 0.00 0.00 0.00 61 1016.2
20260906003029 70 350 1.0 4.0 0.00 0.00 0.00 60 1016.2
20260906001528 69 360 2.0 6.0 0.00 0.00 0.00 63 1016.2
20260906000027 69 323 0.0 5.0 0.00 0.00 0.00 63 1016.1
20260905234526 68 279 1.0 4.0 0.00 0.00 0.00 64 1016.2
20260905233125 68 11 1.0 6.0 0.00 0.00 0.00 61 1016.2
20260905231525 67 110 1.0 8.0 0.00 0.00 0.00 65 1016.4
20260905230024 67 237 1.0 6.0 0.00 0.00 0.00 66 1016.4
20260905224526 67 146 1.0 6.0 0.00 0.00 0.00 64 1016.5
20260905223032 69 229 1.0 9.0 0.00 0.00 0.00 62 1016.3
20260905221523 71 173 1.0 8.0 0.00 0.00 0.00 61 1015.8
20260905220024 72 128 2.0 6.0 0.00 0.00 0.00 60 1015.8
20260905214521 72 230 1.0 8.0 0.00 0.00 0.00 59 1015.8
20260905213020 72 250 0.0 9.0 0.00 0.00 0.00 64 1015.7
20260905211522 72 117 2.0 7.0 0.00 0.00 0.00 62 1015.6
20260905210018 72 327 2.0 6.0 0.00 0.00 0.00 62 1015.7
20260905204518 72 254 4.0 10.0 0.00 0.00 0.00 65 1015.6
20260905203017 72 213 1.0 5.0 0.00 0.00 0.00 67 1015.7
20260905201520 72 117 1.0 8.0 0.00 0.00 0.00 67 1015.6
20260905200016 72 252 2.0 7.0 0.00 0.00 0.00 67 1015.5
20260905194514 72 317 1.0 8.0 0.00 0.00 0.00 67 1015.7
20260905193012 72 248 3.0 7.0 0.00 0.00 0.00 64 1015.7
20260905191512 71 134 2.0 4.0 0.00 0.00 0.00 62 1015.8
20260905190019 70 277 0.0 2.0 0.00 0.00 0.00 65 1016.0
20260905184504 69 32 0.0 2.0 0.00 0.00 0.00 64 1016.1
20260905183124 68 144 0.0 2.0 0.00 0.00 0.00 73 1016.2
20260905181559 66 73 0.0 2.0 0.00 0.00 0.00 75 1016.4
20260905180051 63 73 0.0 2.0 0.00 0.00 0.00 82 1016.5
20260905174547 61 73 0.0 2.0 0.00 0.00 0.00 87 1016.8
20260905173042 59 73 0.0 2.0 0.00 0.00 0.00 89 1016.9
20260905171539 56 340 0.0 2.0 0.00 0.00 0.00 90 1017.0
20260905170035 55 115 0.0 2.0 0.00 0.00 0.00 91 1017.1
20260905164536 55 312 0.0 2.0 0.00 0.00 0.00 91 1017.2
20260905163028 54 55 0.0 2.0 0.00 0.00 0.00 90 1017.4
20260905161526 54 113 0.0 2.0 0.00 0.00 0.00 91 1017.7
20260905160023 54 258 0.0 2.0 0.00 0.00 0.00 92 1017.7
20260905154521 53 258 0.0 2.0 0.00 0.00 0.00 93 1017.8
20260905153022 53 203 0.0 2.0 0.00 0.00 0.00 94 1017.8
20260905151518 53 341 0.0 0.0 0.00 0.00 0.00 95 1017.8
20260905150018 52 341 0.0 0.0 0.00 0.00 0.00 95 1017.9
20260905144516 52 341 0.0 0.0 0.00 0.00 0.00 96 1017.8
20260905143021 52 341 0.0 0.0 0.00 0.00 0.00 96 1017.8
20260905141519 52 341 0.0 0.0 0.00 0.00 0.00 96 1017.7
20260905140012 52 341 0.0 0.0 0.00 0.00 0.00 96 1017.6
20260905134512 52 341 0.0 0.0 0.00 0.00 0.00 96 1017.6
20260905133010 52 341 0.0 0.0 0.00 0.00 0.00 96 1017.4
20260905131518 52 341 0.0 0.0 0.00 0.00 0.00 96 1017.4
20260905130016 52 341 0.0 0.0 0.00 0.00 0.00 95 1017.5
20260905124507 52 341 0.0 0.0 0.00 0.00 0.00 95 1017.5
20260905123006 52 341 0.0 0.0 0.00 0.00 0.00 95 1017.7
20260905121506 52 341 0.0 0.0 0.00 0.00 0.00 95 1017.7
20260905120005 52 341 0.0 2.0 0.00 0.00 0.00 95 1017.8
20260905114505 52 300 0.0 2.0 0.00 0.00 0.00 96 1017.8